Content
SEND FEEDBACK

Daily
Averages
Monthly
Summary
United States of America

HAZELWOOD, MISSOURI


Home > North America > United States > Missouri
Elevation: 174 meters     Latitude: 38 45N     Longitude: 090 22W

WEATHER
 
SELECT A DAY
Number of Records: 196,364;   Date Range: 1/1/95 - 7/26/14
 
SHARE

PRINT THIS DATA

[ ← Previous Day ]
WEATHER ALMANAC - 3 FEBRUARY, 2013
[ Next Day → ]
[ °F ]   °C
Weather ElementAverageHighLow
Temperature-2.2 °C1.1 °C (2:54 pm)-6.1 °C (7:54 pm)
Dewpoint-6.3 °C-1 °C (12:29 am)-11.1 °C (2:54 pm)
Humidity75.9 %100 % (12:29 am)40 % (2:54 pm)
Barometer1019.3 hPa1023.7 hPa (10:54 am)1016.6 hPa (1:46 am)
Wind Speed8.7 km/h31.5 km/h (8:54 am)
Wind Gust50.1 km/h (7:54 am)
Weather ElementAverage
Visibility10.5 km
Wind DirectionSE (133.3 °)

Weather ElementTotal
Precipitation11.43 mm
Heating Degree Days20.8 (Base 18.3)
Averaged from 36 records on 3 February, 2013
WEATHER CONDITIONS BREAKOUT
WIND DIRECTION BREAKOUT
WEATHER BY HOUR - 3 FEBRUARY, 2013
[ °F ]   °C
Local TimeTemperatureDewpointHumidityBarometerVisibilityWind DirectionWind SpeedGust SpeedPrecipitationEventsConditions
12:29 AM-1 °C-1 °C100 %1017.6 hPa0.3 kmCalm2.29 mmFog-SnowHeavy Snow
12:36 AM-1 °C-2 °C93 %1017.6 hPa1.6 kmSouth (190°)5.6 km/h2.29 mmSnowLight Snow
12:42 AM-1 °C-2 °C93 %1017.3 hPa4.8 kmCalm2.29 mmSnowLight Snow
12:49 AM-1 °C-2 °C93 %1017.3 hPa9.7 kmCalm2.29 mmOvercast
12:54 AM-0.6 °C-1.7 °C92 %1017.9 hPa11.3 kmCalm2.29 mmOvercast
1:46 AM-3 °C-4 °C93 %1016.6 hPa2.4 kmCalmPartly Cloudy
1:54 AM-2.8 °C-3.9 °C92 %1017.6 hPa2.4 kmCalmPartly Cloudy
2:03 AM-3 °C-4 °C93 %1016.9 hPa0.8 kmCalmFogLight Freezing Fog
2:11 AM-6 °C-6 °C100 %1016.9 hPa0.3 kmCalmFogLight Freezing Fog
2:19 AM-5 °C-7 °C86 %1016.9 hPa0.3 kmCalmFogLight Freezing Fog
2:45 AM-6 °C-7 °C93 %1016.9 hPa0.3 kmCalmFogLight Freezing Fog
2:52 AM-4 °C-6 °C86 %1016.9 hPa0.3 kmCalmFogLight Freezing Fog
2:54 AM-5 °C-5.6 °C96 %1017.9 hPa0.3 kmCalmFogLight Freezing Fog
3:11 AM-5 °C-6 °C93 %1016.9 hPa1.6 kmWest (260°)13 km/hMostly Cloudy
3:14 AM-3 °C-5 °C86 %1016.9 hPa4.8 kmWest (260°)14.8 km/hMostly Cloudy
3:54 AM-2.8 °C-3.9 °C92 %1017.9 hPa16.1 kmWSW (250°)16.7 km/hClear
4:54 AM-2.8 °C-4.4 °C89 %1018.3 hPa16.1 kmWSW (250°)16.7 km/hPartly Cloudy
5:54 AM-1.1 °C-3.9 °C82 %1019 hPa16.1 kmWNW (290°)18.5 km/hPartly Cloudy
6:54 AM-0.6 °C-4.4 °C76 %1019.3 hPa16.1 kmWNW (290°)22.2 km/hClear
7:54 AM-0.6 °C-6.1 °C67 %1020.7 hPa16.1 kmWNW (290°)27.8 km/h50.1 km/hScattered Clouds
8:54 AM-1.1 °C-6.7 °C66 %1021.7 hPa16.1 kmWNW (300°)31.5 km/h48.1 km/hOvercast
9:54 AM-1.1 °C-7.2 °C64 %1022.7 hPa16.1 kmWNW (300°)29.6 km/h38.9 km/hMostly Cloudy
10:54 AM-0.6 °C-7.2 °C61 %1023.7 hPa16.1 kmWNW (300°)29.6 km/hMostly Cloudy
11:54 AM-0.6 °C-7.8 °C59 %1023.7 hPa16.1 kmNW (310°)16.7 km/h38.9 km/hScattered Clouds
12:54 PM0 °C-8.3 °C54 %1023.7 hPa16.1 kmWNW (300°)22.2 km/h35.2 km/hPartly Cloudy
1:54 PM0.6 °C-9.4 °C48 %1022.7 hPa16.1 kmNNW (330°)16.7 km/hClear
2:54 PM1.1 °C-11.1 °C40 %1022.7 hPa16.1 kmNW (320°)11.1 km/hClear
3:54 PM0.6 °C-9.4 °C48 %1022.4 hPa16.1 kmWSW (250°)5.6 km/hClear
4:54 PM0 °C-9.4 °C50 %1021.7 hPa16.1 kmCalmPartly Cloudy
5:54 PM-2.8 °C-10 °C58 %1021 hPa16.1 kmCalmScattered Clouds
6:54 PM-2.8 °C-9.4 °C61 %1020.7 hPa16.1 kmCalmClear
7:54 PM-6.1 °C-9.4 °C78 %1020.3 hPa16.1 kmCalmClear
8:54 PM-1.1 °C-10 °C51 %1019.3 hPa16.1 kmSE (140°)5.6 km/hClear
9:54 PM-3.9 °C-9.4 °C66 %1018.3 hPa16.1 kmCalmClear
10:54 PM-3.3 °C-8.9 °C66 %1017.6 hPa16.1 kmEast (100°)5.6 km/hClear
11:54 PM-3.3 °C-8.3 °C69 %1016.6 hPa16.1 kmENE (70°)5.6 km/hClear
Hourly data recorded from KSUS, located 0 kilometers away from Hazelwood, Missouri







STORIES FROM OUR PARTNERS